Regional Weather Roundup
Issued by NWS Cleveland, OH

Home | Current Version | Previous Version | Graphics & Text | Print | Product List | Glossary On
Versions: 1 2 3 4 5 6 7 8 9 10 11 12 13 14 15 16 17 18 19 20 21 22 23 24 25 26 27 28 29 30 31 32 33 34 35 36 37 38 39 40 41 42 43 44 45 46 47 48 49 50
000
ASUS41 KCLE 280600
RWRCLE
OHIO REGIONAL WEATHER ROUNDUP
NATIONAL WEATHER SERVICE WILMINGTON, OH
200 AM EDT MON MAY 28 2018

NOTE: "FAIR" INDICATES FEW OR NO CLOUDS BELOW 12,000 FEET WITH NO
SIGNIFICANT WEATHER AND/OR OBSTRUCTIONS TO VISIBILITY.

OHZ001>008-015>018-024>027-034-035-043-044-280700-
   NORTHWEST OHIO

CITY           SKY/WX    TMP DP  RH WIND       PRES   REMARKS
DEFIANCE       FAIR      68  63  84 CALM      29.94R
FINDLAY        FAIR      73  66  78 S6        29.94S
TOLEDO EXPRESS MOCLDY    70  67  90 CALM      29.93R
TOLEDO EXEC    CLOUDY    75  66  73 CALM      29.94R
LIMA           FAIR      73  64  73 S8        29.96R
$$

OHZ009>014-019>023-028>033-038-089-280700-
   NORTHEAST OHIO

CITY           SKY/WX    TMP DP  RH WIND       PRES   REMARKS
CLE-HOPKINS    FAIR      74  68  81 S9        29.96F
CLE-LAKEFRONT  FAIR      75  66  73 S9        29.93S
CUY CO. ARPT   NOT AVBL
LORAIN-ELYRIA  FAIR      72  64  76 SW8       29.96S
ASHTABULA      FAIR      67  66  97 S7        29.96F
AKRON-CANTON   FAIR      71  65  81 CALM      29.99S
WOOSTER        NOT AVBL
MANSFIELD      FAIR      71  67  87 S7        29.99S
YOUNGSTOWN     FAIR      66  64  93 S3        29.98S
$$

OHZ042-051>053-060>062-070>072-077>081-280700-
  SOUTHWEST OHIO

CITY           SKY/WX    TMP DP  RH WIND       PRES   REMARKS
CINC-COVINGTON CLOUDY    73  66  78 CALM      29.96S
CINC-LUNKEN    FAIR      70  69  97 CALM      29.96S
HAMILTON       FAIR      69  69 100 CALM      29.96S
DAYTON         NOT AVBL
WRIGHT-PAT AFB FAIR      71  66  84 CALM      29.96S
DAYTON GENERAL FAIR      73  66  78 CALM      29.96S
WILMINGTON     FAIR      71  67  87 CALM      29.97S
$$

OHZ036-037-039>041-045>050-054>059-063>069-073>076-082>088-280700-
  CENTRAL AND SOUTHEAST OHIO

CITY           SKY/WX    TMP DP  RH WIND       PRES   REMARKS
COLUMBUS       FAIR      73  68  84 CALM      29.97R
OSU AIRPORT    FAIR      73  67  81 CALM      29.97S
BOLTON FIELD   NOT AVBL
RICKENBACK AFB NOT AVBL
NEWARK         FAIR      69  68  96 CALM      29.97R FOG
MARION         FAIR      70  66  87 S6        29.98S
LANCASTER      FAIR      68  68 100 CALM      29.97S
ZANESVILLE     FAIR      69  67  93 CALM      29.98R
NEW PHILLY     FAIR      67  66  97 CALM      29.99R FOG
$$




USA.gov is the U.S. government's official web portal to all federal, state and local government web resources and services.